timestamp,wind_dir_avg,wind_spd_avg,wind_spd_max_dir,wind_spd_gust,battery_voltage,lat,long
2023-07-20 00:04:00+00:00,211.0,8.06,226.0,10.21,12.81,47.59359,-54.27349
2023-07-20 00:14:01+00:00,206.0,7.61,212.0,8.44,12.41,47.59359,-54.27349
2023-07-20 00:24:01+00:00,203.0,7.68,211.0,8.77,12.41,47.59359,-54.27349
2023-07-20 00:34:01+00:00,203.0,7.14,204.0,8.26,12.41,47.59359,-54.27349
2023-07-20 00:44:01+00:00,206.0,6.65,211.0,7.61,12.41,47.59359,-54.27349
2023-07-20 00:54:01+00:00,220.0,6.65,226.0,7.85,12.41,47.59359,-54.27349
2023-07-20 01:04:01+00:00,198.0,6.32,191.0,7.18,12.41,47.59359,-54.27349
2023-07-20 01:14:01+00:00,194.0,7.47,197.0,8.51,12.41,47.59359,-54.27349
2023-07-20 01:24:01+00:00,203.0,5.23,211.0,6.47,12.41,47.59359,-54.27349
2023-07-20 01:34:01+00:00,205.0,5.68,214.0,6.52,12.41,47.59359,-54.27349
2023-07-20 01:44:01+00:00,196.0,6.67,196.0,7.25,12.41,47.59359,-54.27349
2023-07-20 01:54:01+00:00,202.0,5.97,205.0,6.76,12.41,47.59359,-54.27349
2023-07-20 02:04:01+00:00,202.0,6.22,208.0,7.08,12.41,47.59359,-54.27349
2023-07-20 02:14:01+00:00,204.0,5.81,210.0,7.04,12.41,47.59359,-54.27349
2023-07-20 02:24:01+00:00,206.0,6.91,211.0,7.81,12.41,47.59359,-54.27349
2023-07-20 02:34:01+00:00,198.0,7.07,201.0,7.9,12.41,47.59359,-54.27349
2023-07-20 02:44:01+00:00,203.0,6.99,204.0,7.66,12.41,47.59359,-54.27349
2023-07-20 02:54:01+00:00,207.0,7.01,210.0,7.84,12.41,47.59359,-54.27349
2023-07-20 03:04:01+00:00,203.0,7.04,198.0,8.0,12.41,47.59359,-54.27349
2023-07-20 03:14:00+00:00,204.0,6.43,209.0,7.37,12.41,47.59359,-54.27349
2023-07-20 03:24:00+00:00,210.0,6.85,210.0,8.31,12.41,47.59359,-54.27349
2023-07-20 03:34:00+00:00,209.0,6.37,212.0,7.11,12.41,47.59359,-54.27349
2023-07-20 03:44:00+00:00,206.0,6.84,214.0,7.73,12.41,47.59359,-54.27349
2023-07-20 03:54:00+00:00,208.0,8.38,217.0,9.52,12.41,47.59359,-54.27349
2023-07-20 04:04:00+00:00,210.0,8.47,215.0,9.61,12.41,47.59359,-54.27349
2023-07-20 04:14:00+00:00,208.0,8.45,217.0,9.54,12.41,47.59359,-54.27349
2023-07-20 04:24:00+00:00,210.0,8.02,215.0,8.93,12.41,47.59359,-54.27349
2023-07-20 04:34:00+00:00,205.0,7.4,207.0,8.27,12.41,47.59359,-54.27349
2023-07-20 04:44:00+00:00,205.0,6.71,206.0,7.58,12.41,47.59359,-54.27349
2023-07-20 04:54:00+00:00,200.0,5.52,197.0,6.36,12.41,47.59359,-54.27349
2023-07-20 05:04:00+00:00,196.0,5.43,196.0,6.17,12.41,47.59359,-54.27349
2023-07-20 05:14:00+00:00,196.0,5.41,200.0,6.22,12.33,47.59359,-54.27349
2023-07-20 05:24:00+00:00,188.0,6.28,190.0,6.96,12.33,47.59359,-54.27349
2023-07-20 05:34:00+00:00,201.0,5.67,205.0,6.53,12.33,47.59359,-54.27349
2023-07-20 05:44:00+00:00,197.0,6.16,196.0,6.99,12.33,47.59359,-54.27349
2023-07-20 05:54:00+00:00,198.0,6.39,197.0,7.33,12.33,47.59359,-54.27349
2023-07-20 06:04:00+00:00,202.0,6.08,201.0,7.31,12.33,47.59359,-54.27349
2023-07-20 06:14:01+00:00,205.0,5.41,208.0,6.31,12.33,47.59359,-54.27349
2023-07-20 06:24:01+00:00,210.0,6.37,212.0,7.85,12.33,47.59359,-54.27349
2023-07-20 06:34:01+00:00,212.0,5.7,215.0,6.85,12.33,47.59359,-54.27349
2023-07-20 06:44:01+00:00,218.0,4.68,224.0,5.4,12.33,47.59359,-54.27349
2023-07-20 06:54:01+00:00,221.0,6.2,230.0,8.1,12.33,47.59359,-54.27349
2023-07-20 07:04:01+00:00,223.0,6.52,224.0,7.31,12.33,47.59359,-54.27349
2023-07-20 07:14:01+00:00,223.0,5.5,216.0,7.03,12.33,47.59359,-54.27349
2023-07-20 07:24:01+00:00,213.0,5.34,221.0,6.11,12.33,47.59359,-54.27349
2023-07-20 07:34:01+00:00,211.0,5.2,214.0,6.27,12.33,47.59359,-54.27349
2023-07-20 07:44:01+00:00,217.0,6.44,217.0,7.89,12.33,47.59359,-54.27349
2023-07-20 07:54:01+00:00,214.0,7.61,214.0,8.11,12.33,47.59359,-54.27349
2023-07-20 08:04:01+00:00,200.0,7.7,198.0,8.3,12.33,47.59359,-54.27349
2023-07-20 08:14:00+00:00,217.0,6.09,219.0,7.26,12.25,47.59359,-54.27349
2023-07-20 08:24:00+00:00,223.0,4.09,228.0,5.33,12.25,47.59359,-54.27349
2023-07-20 08:34:00+00:00,221.0,4.18,221.0,5.1,12.25,47.59359,-54.27349
2023-07-20 08:44:00+00:00,203.0,3.69,209.0,4.14,12.25,47.59359,-54.27349
2023-07-20 08:54:00+00:00,213.0,5.05,215.0,5.89,12.25,47.59359,-54.27349
2023-07-20 09:04:00+00:00,201.0,5.47,206.0,6.33,12.25,47.59359,-54.27349
2023-07-20 09:14:00+00:00,194.0,4.14,197.0,4.77,12.17,47.59359,-54.27349
2023-07-20 09:24:00+00:00,197.0,4.64,202.0,5.16,12.17,47.59359,-54.27349
2023-07-20 09:34:00+00:00,201.0,4.95,202.0,5.59,12.17,47.59359,-54.27349
2023-07-20 09:44:00+00:00,203.0,6.01,207.0,6.77,12.17,47.59359,-54.27349
2023-07-20 09:54:00+00:00,198.0,6.1,198.0,6.61,12.17,47.59359,-54.27349
2023-07-20 10:04:00+00:00,197.0,5.25,199.0,5.86,12.17,47.59359,-54.27349
2023-07-20 10:14:00+00:00,202.0,5.52,203.0,6.04,12.33,47.59359,-54.27349
2023-07-20 10:24:00+00:00,204.0,5.46,209.0,6.11,12.33,47.59359,-54.27349
2023-07-20 10:34:00+00:00,207.0,5.2,210.0,5.74,12.33,47.59359,-54.27349
2023-07-20 10:44:00+00:00,214.0,4.16,212.0,5.01,12.33,47.59359,-54.27349
2023-07-20 10:54:00+00:00,218.0,4.22,217.0,4.96,12.33,47.59359,-54.27349
2023-07-20 11:04:00+00:00,213.0,5.02,215.0,6.03,12.33,47.59359,-54.27349
2023-07-20 11:14:01+00:00,216.0,5.22,222.0,5.83,12.81,47.59359,-54.27349
2023-07-20 11:24:01+00:00,211.0,6.61,214.0,7.59,12.81,47.59359,-54.27349
2023-07-20 11:34:01+00:00,214.0,5.32,214.0,6.32,12.81,47.59359,-54.27349
2023-07-20 11:44:01+00:00,208.0,5.2,208.0,5.93,12.81,47.59359,-54.27349
2023-07-20 11:54:01+00:00,209.0,5.61,216.0,7.29,12.81,47.59359,-54.27349
2023-07-20 12:04:01+00:00,206.0,5.43,208.0,6.01,12.81,47.59359,-54.27349
2023-07-20 12:14:00+00:00,205.0,4.97,207.0,5.86,13.05,47.59359,-54.27349
2023-07-20 12:24:00+00:00,217.0,4.77,223.0,6.24,13.05,47.59359,-54.27349
2023-07-20 12:34:00+00:00,220.0,5.93,215.0,7.26,13.05,47.59359,-54.27349
2023-07-20 12:44:00+00:00,220.0,6.83,216.0,7.98,13.05,47.59359,-54.27349
2023-07-20 12:54:00+00:00,213.0,6.73,216.0,7.84,13.05,47.59359,-54.27349
2023-07-20 13:04:00+00:00,213.0,7.49,214.0,8.9,13.05,47.59359,-54.27349
2023-07-20 13:14:00+00:00,213.0,7.68,217.0,8.86,13.13,47.59359,-54.27349
2023-07-20 13:24:00+00:00,211.0,7.88,218.0,9.68,13.13,47.59359,-54.27349
2023-07-20 13:34:00+00:00,214.0,8.0,215.0,10.36,13.13,47.59359,-54.27349
2023-07-20 13:44:00+00:00,203.0,6.89,201.0,8.15,13.13,47.59359,-54.27349
2023-07-20 13:54:00+00:00,201.0,7.3,208.0,8.4,13.13,47.59359,-54.27349
2023-07-20 14:04:00+00:00,202.0,6.83,205.0,8.17,13.13,47.59359,-54.27349
2023-07-20 14:14:00+00:00,202.0,7.68,206.0,8.35,13.68,47.59359,-54.27349
2023-07-20 14:24:00+00:00,201.0,8.18,208.0,9.49,13.68,47.59359,-54.27349
2023-07-20 14:34:00+00:00,204.0,8.5,221.0,10.87,13.68,47.59359,-54.27349
2023-07-20 14:44:00+00:00,207.0,8.68,204.0,10.14,13.68,47.59359,-54.27349
2023-07-20 14:54:00+00:00,202.0,8.96,202.0,10.29,13.68,47.59359,-54.27349
2023-07-20 15:04:00+00:00,203.0,8.67,206.0,9.63,13.68,47.59359,-54.27349
2023-07-20 15:14:01+00:00,204.0,7.99,207.0,9.26,13.6,47.59359,-54.27349
2023-07-20 15:24:01+00:00,208.0,7.6,210.0,9.29,13.6,47.59359,-54.27349
2023-07-20 15:34:01+00:00,204.0,6.91,201.0,8.31,13.6,47.59359,-54.27349
2023-07-20 15:44:01+00:00,202.0,8.2,197.0,9.39,13.6,47.59359,-54.27349
2023-07-20 15:54:01+00:00,211.0,9.43,219.0,11.13,13.6,47.59359,-54.27349
2023-07-20 16:04:01+00:00,210.0,9.35,221.0,10.83,13.6,47.59359,-54.27349
2023-07-20 16:14:00+00:00,206.0,8.74,219.0,10.33,13.76,47.59359,-54.27349
2023-07-20 16:24:00+00:00,211.0,8.67,222.0,10.8,13.76,47.59359,-54.27349
2023-07-20 16:34:00+00:00,206.0,8.05,225.0,10.25,13.76,47.59359,-54.27349
2023-07-20 16:44:00+00:00,199.0,7.25,197.0,8.36,13.76,47.59359,-54.27349
2023-07-20 16:54:00+00:00,201.0,8.21,210.0,9.61,13.76,47.59359,-54.27349
2023-07-20 17:04:00+00:00,201.0,8.72,205.0,9.83,13.76,47.59359,-54.27349
2023-07-20 17:14:00+00:00,210.0,7.23,212.0,8.37,14.24,47.59359,-54.27349
2023-07-20 17:24:00+00:00,203.0,7.22,211.0,8.66,14.24,47.59359,-54.27349
2023-07-20 17:34:00+00:00,203.0,6.63,202.0,8.01,14.24,47.59359,-54.27349
2023-07-20 17:44:00+00:00,202.0,6.59,203.0,7.65,14.24,47.59359,-54.27349
2023-07-20 17:54:00+00:00,194.0,7.4,196.0,8.37,14.24,47.59359,-54.27349
2023-07-20 18:04:00+00:00,200.0,6.68,201.0,7.63,14.24,47.59359,-54.27349
2023-07-20 18:14:00+00:00,192.0,6.33,190.0,7.37,13.68,47.59359,-54.27349
2023-07-20 18:24:00+00:00,193.0,7.16,195.0,8.28,13.68,47.59359,-54.27349
2023-07-20 18:34:00+00:00,202.0,6.07,201.0,6.82,13.68,47.59359,-54.27349
2023-07-20 18:44:00+00:00,210.0,7.17,212.0,8.4,13.68,47.59359,-54.27349
2023-07-20 18:54:00+00:00,213.0,5.72,218.0,7.6,13.68,47.59359,-54.27349
2023-07-20 19:04:00+00:00,211.0,5.47,214.0,6.36,13.68,47.59359,-54.27349
2023-07-20 19:14:00+00:00,201.0,8.02,204.0,8.72,13.68,47.59359,-54.27349
2023-07-20 19:24:00+00:00,212.0,6.66,216.0,8.0,13.68,47.59359,-54.27349
2023-07-20 19:34:00+00:00,199.0,6.67,197.0,8.36,13.68,47.59359,-54.27349
2023-07-20 19:44:00+00:00,201.0,5.99,203.0,6.91,13.68,47.59359,-54.27349
2023-07-20 19:54:00+00:00,219.0,6.73,225.0,7.8,13.68,47.59359,-54.27349
2023-07-20 20:04:00+00:00,216.0,6.1,215.0,6.74,13.68,47.59359,-54.27349
2023-07-20 20:14:00+00:00,191.0,5.77,194.0,6.63,13.6,47.59359,-54.27349
2023-07-20 20:24:00+00:00,207.0,5.98,212.0,6.88,13.6,47.59359,-54.27349
2023-07-20 20:34:00+00:00,213.0,4.28,224.0,5.06,13.6,47.59359,-54.27349
2023-07-20 20:44:00+00:00,211.0,4.5,212.0,5.0,13.6,47.59359,-54.27349
2023-07-20 20:54:00+00:00,194.0,4.74,194.0,5.42,13.6,47.59359,-54.27349
2023-07-20 21:04:00+00:00,192.0,6.7,199.0,7.4,13.6,47.59359,-54.27349
2023-07-20 21:14:01+00:00,202.0,4.51,201.0,4.78,13.29,47.59359,-54.27349
2023-07-20 21:24:01+00:00,188.0,2.94,191.0,3.27,13.29,47.59359,-54.27349
2023-07-20 21:34:01+00:00,212.0,3.09,212.0,3.41,13.29,47.59359,-54.27349
2023-07-20 21:44:01+00:00,214.0,2.74,217.0,3.32,13.29,47.59359,-54.27349
2023-07-20 21:54:01+00:00,203.0,2.56,210.0,2.99,13.29,47.59359,-54.27349
2023-07-20 22:04:01+00:00,215.0,3.44,218.0,3.74,13.29,47.59359,-54.27349
2023-07-20 22:14:00+00:00,214.0,2.74,219.0,3.16,12.97,47.59359,-54.27349
2023-07-20 22:24:00+00:00,208.0,2.27,209.0,2.66,12.97,47.59359,-54.27349
2023-07-20 22:34:00+00:00,208.0,2.08,211.0,2.22,12.97,47.59359,-54.27349
2023-07-20 22:44:00+00:00,243.0,1.83,245.0,1.95,12.97,47.59359,-54.27349
2023-07-20 22:54:00+00:00,260.0,1.59,262.0,1.68,12.97,47.59359,-54.27349
2023-07-20 23:04:00+00:00,259.0,1.32,257.0,1.4,12.97,47.59359,-54.27349
2023-07-20 23:14:00+00:00,273.0,1.13,271.0,1.24,12.57,47.59359,-54.27349
2023-07-20 23:24:00+00:00,322.0,0.63,310.0,0.72,12.57,47.59359,-54.27349
2023-07-20 23:34:00+00:00,77.0,1.07,82.0,1.26,12.57,47.59359,-54.27349
2023-07-20 23:44:00+00:00,80.0,1.77,83.0,1.92,12.57,47.59359,-54.27349
2023-07-20 23:54:00+00:00,61.0,2.57,67.0,2.73,12.57,47.59359,-54.27349
